Location: *
(45.8589°N, 4.7139°E)
Time: 10:03:53
(UTC+00:00)

ASTEX 1 - Pass Details

Date: 09 April 2020
Orbit: 721 x 743 km, 92.7° (Epoch: 03 June)

Event Time Altitude Azimuth Distance (km) Brightness Sun altitude
Exits shadow 21:49:58 46° 5° (N) 990 4.3 -30.5°
Drops below altitude 10° 21:53:28 10° 357° (N) 2,249 6.6 -30.9°
Sets 21:55:45 0° 356° (N) 3,173 7.6 -31.1°
